Change the Weather History Date:

Thursday, September 12, 2013

  Actual Average Record
Temperature  
Mean Temperature 68 °F -  
Max Temperature 84 °F 69 °F 84 °F (2013)
Min Temperature 53 °F 54 °F 50 °F (2001)
Cooling Degree Days 4    
Growing Degree Days 18 (Base 50)    
Moisture  
Dew Point 57 °F    
Average Humidity 66    
Maximum Humidity 100    
Minimum Humidity 40    
Precipitation  
Precipitation 0.00 in - - ()
Sea Level Pressure  
Sea Level Pressure 30.18 in    
Wind  
Wind Speed 4 mph ()    
Max Wind Speed 14 mph    
Max Gust Speed -    
Visibility 6.2 miles    
Events      
Averages and records for this station are not official NWS values.
T = Trace of Precipitation, MM = Missing Value Source: Averaged Metar Reports

Daily Weather History Graph

Daily Weather History Graph

Search for Another Location

Airport or City:

Trip Planner

Search our weather history database for the weather conditions in past years. The results will help you decide how hot, cold, wet, or windy it might be!

Date:

Astronomy

Sep. 12, 2013 Rise Set
Actual Time 8:09 AM CEST 8:48 PM CEST
Civil Twilight 7:40 AM CEST 9:17 PM CEST
Nautical Twilight 7:06 AM CEST 9:51 PM CEST
Astronomical Twilight 6:31 AM CEST 10:26 PM CEST
Moon 3:35 PM CEST (9/12) 12:23 AM CEST (9/12)
Length of Visible Light 13h 36m
Length of Day
12h 39m
Waxing Crescent, 47% of the Moon is Illuminated
Sep 12
Waxing Crescent
Sep 12
First Quarter
Sep 19
Full
Sep 27
Last Quarter
Oct 5
New

Hourly Weather History & Observations

Time (CEST) Temp. Heat Index Dew Point Humidity Pressure Visibility Wind Dir Wind Speed Gust Speed Precip Events Conditions
12:00 AM 66.2 °F - 57.2 °F 73% 30.21 in 6.2 mi NNE 3.5 mph - N/A   Partly Cloudy
12:30 AM 66.2 °F - 57.2 °F 73% 30.21 in 6.2 mi Variable 2.3 mph - N/A   Partly Cloudy
1:00 AM 66.2 °F - 57.2 °F 73% 30.21 in 6.2 mi NNE 3.5 mph - N/A   Partly Cloudy
5:30 AM 55.4 °F - 53.6 °F 94% 30.18 in - South 3.5 mph - N/A   Clear
6:00 AM 55.4 °F - 53.6 °F 94% 30.18 in - South 3.5 mph - N/A   Clear
6:30 AM 55.4 °F - 53.6 °F 94% 30.18 in - Variable 2.3 mph - N/A   Clear
7:00 AM 55.4 °F - 53.6 °F 94% 30.18 in - SSW 3.5 mph - N/A   Clear
7:30 AM 53.6 °F - 53.6 °F 100% 30.18 in - South 3.5 mph - N/A   Clear
8:00 AM 53.6 °F - 53.6 °F 100% 30.18 in - South 3.5 mph - N/A   Clear
8:30 AM 53.6 °F - 53.6 °F 100% 30.18 in - South 3.5 mph - N/A   Clear
9:00 AM 55.4 °F - 53.6 °F 94% 30.18 in - Variable 1.2 mph - N/A   Clear
9:30 AM 59.0 °F - 57.2 °F 94% 30.21 in 6.2 mi Variable 2.3 mph - N/A   Partly Cloudy
10:00 AM 60.8 °F - 57.2 °F 88% 30.21 in 6.2 mi Variable 1.2 mph - N/A   Partly Cloudy
10:30 AM 66.2 °F - 59.0 °F 78% 30.21 in 6.2 mi Variable 2.3 mph - N/A   Partly Cloudy
11:00 AM 69.8 °F - 59.0 °F 68% 30.21 in 6.2 mi Calm Calm - N/A   Partly Cloudy
11:30 AM 71.6 °F - 57.2 °F 60% 30.21 in - Variable 1.2 mph - N/A   Clear
12:00 PM 73.4 °F - 57.2 °F 57% 30.21 in - Variable 2.3 mph - N/A   Clear
12:30 PM 75.2 °F - 59.0 °F 57% 30.21 in - North 3.5 mph - N/A   Clear
1:00 PM 75.2 °F - 57.2 °F 53% 30.21 in - Variable 3.5 mph - N/A   Clear
1:30 PM 77.0 °F - 59.0 °F 54% 30.18 in - North 5.8 mph - N/A   Clear
2:00 PM 78.8 °F - 57.2 °F 47% 30.18 in - North 6.9 mph - N/A   Clear
2:30 PM 80.6 °F 81.1 °F 59.0 °F 48% 30.18 in - North 6.9 mph - N/A   Clear
3:00 PM 80.6 °F 80.8 °F 57.2 °F 45% 30.18 in - North 8.1 mph - N/A   Clear
3:30 PM 82.4 °F 82.0 °F 57.2 °F 42% 30.15 in - North 10.4 mph - N/A   Clear
4:00 PM 84.2 °F 83.5 °F 57.2 °F 40% 30.15 in - North 10.4 mph - N/A   Clear
4:30 PM 84.2 °F 83.5 °F 57.2 °F 40% 30.15 in - North 11.5 mph - N/A   Clear
5:00 PM 84.2 °F 83.5 °F 57.2 °F 40% 30.15 in - NNE 9.2 mph - N/A   Clear
5:30 PM 84.2 °F 83.8 °F 59.0 °F 42% 30.15 in - NNE 11.5 mph - N/A   Clear
6:00 PM 82.4 °F 82.0 °F 57.2 °F 42% 30.15 in - NNE 11.5 mph - N/A   Clear
6:30 PM 82.4 °F 82.0 °F 57.2 °F 42% 30.15 in - NNE 13.8 mph - N/A   Clear
7:00 PM 80.6 °F 80.8 °F 57.2 °F 45% 30.15 in - NNE 10.4 mph - N/A   Clear
7:30 PM 78.8 °F - 57.2 °F 47% 30.15 in - North 6.9 mph - N/A   Clear
8:00 PM 75.2 °F - 59.0 °F 57% 30.15 in - North 6.9 mph - N/A   Clear
8:30 PM 75.2 °F - 59.0 °F 57% 30.15 in - NNE 11.5 mph - N/A   Clear
9:00 PM 73.4 °F - 59.0 °F 61% 30.15 in - NNE 9.2 mph - N/A   Clear
9:30 PM 71.6 °F - 59.0 °F 64% 30.18 in - NNE 8.1 mph - N/A   Clear
10:00 PM 71.6 °F - 59.0 °F 64% 30.18 in - NNE 10.4 mph - N/A   Clear
10:30 PM 69.8 °F - 59.0 °F 68% 30.21 in - North 5.8 mph - N/A   Clear
11:00 PM 69.8 °F - 59.0 °F 68% 30.21 in - North 3.5 mph - N/A   Clear
11:30 PM 69.8 °F - 59.0 °F 68% 30.21 in - Variable 2.3 mph - N/A   Clear